sat.trackr.live / text

‹ back to catalog

STARLINK-5124

NORAD 54011 · 2022-125AZ

PAYLOAD ACTIVE UNKNOWN

§ Identity

Operator
Country
US
Launch date
2022-10-05
Launch site
AFWTR
Launch vehicle
Mass (kg)
RCS (m²)

Purposes: comms

External: N2YO · Heavens-Above · Gunter

§ Orbital elements

Epoch: 2026-05-25T05:11:02.931360Z

Period
95.44 min
Inclination
53.2133°
Eccentricity
0.0001159
Mean motion
15.08838103 rev/d
Perigee alt
538.9 km
Apogee alt
540.6 km
Semi-major
6,917.9 km
B*
5.8689e-7
RAAN
220.7292°
Arg perigee
87.9467°
Mean anomaly
272.1658°
Rev number
20,115

§ Raw data

STARLINK-51241 54011U 22125AZ  26145.21600615 -.00000278  00000+0  58689-6 0  99912 54011  53.2133 220.7292 0001159  87.9467 272.1658 15.08838103201158

JSON: /api/v1/satellites/54011 · /tle

For live sub-satellite position, see the globe view (requires WebGL).

§ Visibility from observer

Set your observer location to see the next 7 days of passes ≥ 10°. The values pass through the URL so the page stays shareable.

No JS? Fill the form by hand. The geolocation button needs JavaScript.